Location: Hiram
(41.3130°N, 81.1440°W)
Time: 17:55:59
(UTC-04:00)

Iridium 62 - Visible Passes

Search period start: 30 September 2014 00:00
Search period end: 10 October 2014 00:00
Orbit: 776 x 779 km, 86.4° (Epoch: 30 September)

Date Brightness Start Highest point End Pass type
(mag) Time Alt. Az. Time Alt. Az. Time Alt. Az.
30 Sep 6.9 19:50:53 10° SSW 19:55:56 51° W 20:01:01 10° N visible
01 Oct 7.3 06:20:42 10° NNE 06:25:38 41° E 06:30:30 10° SSE visible
01 Oct 9.3 21:02:39 10° W 21:03:49 11° WNW 21:04:59 10° WNW visible
02 Oct 8.4 05:47:47 10° NNE 05:51:53 23° ENE 05:55:57 10° SE visible
02 Oct 8.7 20:26:08 10° WSW 20:29:53 20° WNW 20:33:40 10° NNW visible
03 Oct 9.1 05:15:47 10° NE 05:18:00 13° ENE 05:20:12 10° E visible
03 Oct 5.8 06:54:07 10° N 06:59:20 75° W 07:04:30 10° S visible
03 Oct 7.7 19:51:22 10° SSW 19:56:07 35° W 20:00:53 10° NNW visible
04 Oct 6.5 06:20:38 10° N 06:25:47 59° E 06:30:54 10° SSE visible
04 Oct 6.4 19:17:19 10° SSW 19:22:28 66° W 19:27:39 10° N visible
05 Oct 7.7 05:47:27 10° NNE 05:52:07 32° E 05:56:45 10° SE visible
05 Oct 9.0 20:27:34 10° WSW 20:30:12 14° WNW 20:32:51 10° NW visible
06 Oct 8.6 05:14:46 10° NNE 05:18:19 18° ENE 05:21:51 10° ESE visible
06 Oct 6.0 06:54:19 10° NNW 06:59:22 52° W 07:04:23 10° SSW visible
06 Oct 8.4 19:52:06 10° SW 19:56:20 25° WNW 20:00:36 10° NNW visible
07 Oct 5.9 06:20:39 10° N 06:25:54 86° E 06:31:06 10° S visible
07 Oct 7.2 19:17:39 10° SSW 19:22:36 45° W 19:27:36 10° N visible
08 Oct 6.9 05:47:17 10° N 05:52:18 46° E 05:57:17 10° SSE visible
09 Oct 8.0 05:14:16 10° NNE 05:18:35 26° ENE 05:22:53 10° SE visible
09 Oct 6.4 06:54:38 10° NNW 06:59:21 36° W 07:04:03 10° SSW visible
09 Oct 8.8 19:53:10 10° WSW 19:56:36 18° WNW 20:00:04 10° NNW visible
